TimeMST,TemperatureF,Dew PointF,Humidity,Sea Level PressureIn,VisibilityMPH,Wind Direction,Wind SpeedMPH,Gust SpeedMPH,PrecipitationIn,Events,Conditions,WindDirDegrees,DateUTC
12:15 AM,34.2,30.9,88,30.22,10.0,West,8.1,-,N/A,,Clear,260,2012-11-05 07:15:00
12:35 AM,33.4,30.9,90,30.22,10.0,West,8.1,-,N/A,,Clear,270,2012-11-05 07:35:00
12:55 AM,32.2,30.4,93,30.22,10.0,West,8.1,-,N/A,,Clear,260,2012-11-05 07:55:00
1:15 AM,32.5,30.7,93,30.22,10.0,WSW,6.9,-,N/A,,Clear,250,2012-11-05 08:15:00
1:35 AM,32.4,30.2,92,30.22,10.0,West,5.8,-,N/A,,Clear,260,2012-11-05 08:35:00
1:55 AM,32.0,30.2,93,30.22,10.0,WSW,6.9,-,N/A,,Clear,250,2012-11-05 08:55:00
2:15 AM,35.4,32.4,89,30.23,10.0,SW,8.1,-,N/A,,Clear,230,2012-11-05 09:15:00
2:35 AM,36.7,32.9,86,30.23,10.0,SW,8.1,-,N/A,,Clear,230,2012-11-05 09:35:00
2:55 AM,36.5,32.5,86,30.23,10.0,SW,6.9,-,N/A,,Clear,220,2012-11-05 09:55:00
3:15 AM,34.3,31.3,89,30.23,10.0,WSW,5.8,-,N/A,,Clear,240,2012-11-05 10:15:00
3:35 AM,33.4,31.1,91,30.23,10.0,WSW,10.4,-,N/A,,Clear,250,2012-11-05 10:35:00
3:55 AM,31.6,28.9,90,30.23,10.0,West,5.8,-,N/A,,Clear,270,2012-11-05 10:55:00
4:15 AM,30.0,28.0,92,30.23,10.0,West,4.6,-,N/A,,Clear,270,2012-11-05 11:15:00
4:35 AM,29.3,27.1,92,30.23,10.0,West,3.5,-,N/A,,Clear,280,2012-11-05 11:35:00
4:55 AM,30.9,28.9,92,30.23,10.0,Calm,Calm,-,N/A,,Clear,0,2012-11-05 11:55:00
5:15 AM,29.7,28.0,94,30.23,10.0,WSW,3.5,-,N/A,,Clear,240,2012-11-05 12:15:00
5:35 AM,29.5,27.7,93,30.23,10.0,SW,3.5,-,N/A,,Clear,230,2012-11-05 12:35:00
5:55 AM,28.8,26.8,92,30.22,10.0,West,3.5,-,N/A,,Clear,260,2012-11-05 12:55:00
6:15 AM,27.1,25.2,92,30.22,10.0,Calm,Calm,-,N/A,,Clear,0,2012-11-05 13:15:00
6:35 AM,27.3,25.7,94,30.22,10.0,Calm,Calm,-,N/A,,Clear,0,2012-11-05 13:35:00
6:55 AM,28.2,26.6,94,30.23,10.0,Calm,Calm,-,N/A,,Clear,0,2012-11-05 13:55:00
7:15 AM,30.6,28.8,93,30.23,10.0,West,4.6,-,N/A,,Clear,270,2012-11-05 14:15:00
7:35 AM,33.6,32.0,94,30.22,10.0,Calm,Calm,-,N/A,,Clear,0,2012-11-05 14:35:00
7:55 AM,36.1,33.1,89,30.22,10.0,Calm,Calm,-,N/A,,Clear,0,2012-11-05 14:55:00
8:15 AM,39.9,35.4,84,30.22,10.0,Calm,Calm,-,N/A,,Clear,0,2012-11-05 15:15:00
8:35 AM,42.4,35.6,77,30.22,10.0,Calm,Calm,-,N/A,,Clear,0,2012-11-05 15:35:00
8:55 AM,44.1,35.4,72,30.21,10.0,NW,5.8,-,N/A,,Clear,310,2012-11-05 15:55:00
9:15 AM,45.5,36.3,70,30.21,10.0,WSW,5.8,-,N/A,,Clear,250,2012-11-05 16:15:00
9:35 AM,46.4,36.1,67,30.21,10.0,West,3.5,-,N/A,,Mostly Cloudy,280,2012-11-05 16:35:00
9:55 AM,47.8,35.8,63,30.21,10.0,Calm,Calm,-,N/A,,Overcast,0,2012-11-05 16:55:00
10:15 AM,49.3,36.7,62,30.21,10.0,SSW,3.5,-,N/A,,Overcast,210,2012-11-05 17:15:00
10:35 AM,49.6,36.3,60,30.19,10.0,South,5.8,-,N/A,,Overcast,180,2012-11-05 17:35:00
10:55 AM,50.0,35.8,58,30.18,10.0,SSW,4.6,-,N/A,,Overcast,210,2012-11-05 17:55:00
11:15 AM,51.8,35.6,54,30.17,10.0,WSW,5.8,-,N/A,,Mostly Cloudy,240,2012-11-05 18:15:00
11:35 AM,52.5,35.6,53,30.16,10.0,SSW,3.5,-,N/A,,Mostly Cloudy,210,2012-11-05 18:35:00
11:55 AM,54.3,34.7,48,30.14,10.0,Calm,Calm,-,N/A,,Mostly Cloudy,0,2012-11-05 18:55:00
12:15 PM,55.0,34.2,45,30.12,10.0,Calm,Calm,-,N/A,,Mostly Cloudy,0,2012-11-05 19:15:00
12:35 PM,57.0,32.9,40,30.11,10.0,Calm,Calm,-,N/A,,Scattered Clouds,0,2012-11-05 19:35:00
12:55 PM,59.2,30.6,34,30.09,10.0,SSW,3.5,-,N/A,,Clear,210,2012-11-05 19:55:00
1:15 PM,59.7,30.4,33,30.08,10.0,West,4.6,-,N/A,,Clear,260,2012-11-05 20:15:00
1:35 PM,60.4,31.6,34,30.07,10.0,West,6.9,-,N/A,,Clear,280,2012-11-05 20:35:00
1:55 PM,60.1,31.8,34,30.07,10.0,West,8.1,-,N/A,,Clear,270,2012-11-05 20:55:00
2:15 PM,60.6,32.0,34,30.06,10.0,WSW,6.9,-,N/A,,Clear,240,2012-11-05 21:15:00
2:35 PM,59.9,32.0,35,30.05,10.0,WSW,4.6,-,N/A,,Clear,250,2012-11-05 21:35:00
2:55 PM,60.3,32.0,34,30.04,10.0,SW,4.6,-,N/A,,Clear,220,2012-11-05 21:55:00
3:15 PM,60.1,32.0,35,30.04,10.0,SSW,4.6,-,N/A,,Clear,200,2012-11-05 22:15:00
3:35 PM,59.9,32.0,35,30.04,10.0,Calm,Calm,-,N/A,,Clear,0,2012-11-05 22:35:00
3:55 PM,59.0,32.4,37,30.04,10.0,Calm,Calm,-,N/A,,Clear,0,2012-11-05 22:55:00
4:15 PM,57.6,32.9,39,30.04,10.0,Calm,Calm,-,N/A,,Clear,0,2012-11-05 23:15:00
4:35 PM,55.0,33.4,44,30.03,10.0,Calm,Calm,-,N/A,,Clear,0,2012-11-05 23:35:00
4:55 PM,53.2,33.6,47,30.03,10.0,Calm,Calm,-,N/A,,Clear,0,2012-11-05 23:55:00
5:15 PM,48.9,32.7,54,30.04,10.0,Calm,Calm,-,N/A,,Clear,0,2012-11-06 00:15:00
5:35 PM,47.8,32.5,55,30.03,10.0,Calm,Calm,-,N/A,,Clear,0,2012-11-06 00:35:00
5:55 PM,44.4,31.8,61,30.04,10.0,Calm,Calm,-,N/A,,Clear,0,2012-11-06 00:55:00
6:15 PM,43.9,31.8,63,30.04,10.0,Calm,Calm,-,N/A,,Clear,0,2012-11-06 01:15:00
6:35 PM,44.1,32.0,63,30.04,10.0,Calm,Calm,-,N/A,,Clear,0,2012-11-06 01:35:00
6:55 PM,43.2,32.0,65,30.02,10.0,Calm,Calm,-,N/A,,Clear,0,2012-11-06 01:55:00
7:15 PM,39.2,30.7,72,30.03,10.0,Calm,Calm,-,N/A,,Clear,0,2012-11-06 02:15:00
7:35 PM,39.0,30.6,72,30.04,10.0,Calm,Calm,-,N/A,,Clear,0,2012-11-06 02:35:00
7:55 PM,40.8,32.0,71,30.04,10.0,Calm,Calm,-,N/A,,Mostly Cloudy,0,2012-11-06 02:55:00
8:15 PM,39.0,30.9,73,30.04,10.0,West,4.6,-,N/A,,Scattered Clouds,270,2012-11-06 03:15:00
8:35 PM,39.7,32.0,74,30.04,10.0,WSW,5.8,-,N/A,,Clear,250,2012-11-06 03:35:00
8:55 PM,39.2,32.0,75,30.04,10.0,West,3.5,-,N/A,,Clear,260,2012-11-06 03:55:00
9:15 PM,38.8,32.0,76,30.03,10.0,West,6.9,-,N/A,,Clear,260,2012-11-06 04:15:00
9:35 PM,37.8,32.0,80,30.03,10.0,West,5.8,-,N/A,,Clear,270,2012-11-06 04:35:00
9:55 PM,38.1,32.0,79,30.02,10.0,WSW,9.2,-,N/A,,Clear,240,2012-11-06 04:55:00
10:15 PM,37.4,31.8,80,30.02,10.0,WSW,10.4,-,N/A,,Clear,250,2012-11-06 05:15:00
10:35 PM,38.7,32.2,78,30.02,10.0,WSW,8.1,-,N/A,,Clear,250,2012-11-06 05:35:00
10:55 PM,39.0,32.7,78,30.03,10.0,West,5.8,-,N/A,,Clear,260,2012-11-06 05:55:00
11:15 PM,42.1,33.8,72,30.04,10.0,WNW,9.2,-,N/A,,Clear,300,2012-11-06 06:15:00
11:35 PM,45.0,34.7,67,30.04,10.0,WNW,8.1,-,N/A,,Clear,300,2012-11-06 06:35:00
11:55 PM,43.2,34.0,70,30.04,10.0,West,5.8,-,N/A,,Clear,270,2012-11-06 06:55:00